This is the latest recevied weather packets stored in our database for station/object CE1RLP-31. If no packets are shown the sender has not sent any weather packets the latest 10 day(s).
| Time | Temp. | Humidity | Pressure | Rain* | Wind** | Luminosity | Snow |
|---|---|---|---|---|---|---|---|
| 1777844262 | 16.11° C | 12% | 1099.5 hPa | - | - | - | - |
| 1777843361 | 16.11° C | 11% | 1099.5 hPa | - | - | - | - |
| 1777842461 | 16.11° C | 11% | 1099.5 hPa | - | - | - | - |
| 1777841561 | 16.67° C | 11% | 1099.6 hPa | - | - | - | - |
| 1777840661 | 16.67° C | 11% | 1099.5 hPa | - | - | - | - |
| 1777839761 | 17.22° C | 10% | 1099.6 hPa | - | - | - | - |
| 1777838861 | 17.22° C | 10% | 1099.7 hPa | - | - | - | - |
| 1777837961 | 17.78° C | 9% | 1099.6 hPa | - | - | - | - |
| 1777837061 | 17.78° C | 9% | 1099.6 hPa | - | - | - | - |
| 1777836161 | 18.33° C | 9% | 1099.8 hPa | - | - | - | - |
| 1777835260 | 18.89° C | 9% | 1099.8 hPa | - | - | - | - |
| 1777834360 | 19.44° C | 9% | 1100.8 hPa | - | - | - | - |
| 1777833460 | 20° C | 9% | 1099.9 hPa | - | - | - | - |
| 1777832560 | 20° C | 9% | 1100 hPa | - | - | - | - |
| 1777831660 | 20.56° C | 9% | 1100.1 hPa | - | - | - | - |
| 1777830760 | 21.11° C | 9% | 1100.2 hPa | - | - | - | - |
| 1777829860 | 21.11° C | 9% | 1100.3 hPa | - | - | - | - |
| 1777828960 | 21.11° C | 9% | 1100.5 hPa | - | - | - | - |
| 1777828060 | 21.11° C | 9% | 1100.6 hPa | - | - | - | - |
| 1777827160 | 21.11° C | 9% | 1100.7 hPa | - | - | - | - |
| 1777826259 | 20.56° C | 9% | 1100.8 hPa | - | - | - | - |
| 1777825359 | 20.56° C | 10% | 1100.9 hPa | - | - | - | - |
| 1777824459 | 20° C | 10% | 1101 hPa | - | - | - | - |
| 1777823561 | 19.44° C | 10% | 1101 hPa | - | - | - | - |
| 1777822661 | 19.44° C | 10% | 1100.9 hPa | - | - | - | - |
* Rain since midnight (hover to see other rain measurements)
** Current wind speed in m/s (hover to see current wind gust speed)